User: anonymous   Login
Location: Buckeye Ditch
(40.9104°N, 122.9517°W)
Time: 00:03:46
(UTC+00:00)
Language:

SL-16 R/B - Orbit

View from above orbital plane
View from above orbital plane
View from above satellite
View from above satellite

Ground track
Ground track

The orbit data is extracted from the following two-line orbital elements,

1 28353U 04021B   24175.24590818  .00000027  00000-0  38883-4 0  9997
2 28353  71.0019 102.7784 0007463 269.1267  90.9000 14.14426679 34530
Epoch (UTC): 23 June 2024 05:54:06
Eccentricity: 0.0007463
inclination: 71.0019°
perigee height: 839 km
apogee height: 849 km
right ascension of ascending node: 102.7784°
argument of perigee: 269.1267°
revolutions per day: 14.14426679
mean anomaly at epoch: 90.9000°
orbit number at epoch: 3453

The dashed part of the orbit path shows where the satellite is in the earth's shadow,  

DLR